[[{"header":{"parameterUnit":"m.s-1","parameterCategory":1,"la1":30.2991,"la2":30.254,"lo1":-89.0895,"lo2":-89.0444,"dy":0.0017,"dx":0.0017,"nx":28,"ny":28,"refTime":"2023-10-03T21:00:00:Z","depth":0,"parameterNumber":2,"parameterNumberName":"U-component_of_WINDS"},"data":[0,0,0,0,0,0,0,0,0,0,0,0,0,0,0,0,0,0,0,0,0,0,0,0,0,0,0,0,0,0,0,0,0,0,0,0,0,0,0,0,0,0,0,0,0,0,0,0,0,0,0,0,0,0,0,0,0,0,-2.7311,-2.7311,0,-2.7291,-2.7291,-2.7291,-2.7197,-2.7195,-2.7193,-2.7191,-2.7172,-2.7174,-2.7175,0,0,0,0,0,0,0,0,0,0,0,0,0,-2.727,-2.7272,-2.7311,-2.7311,-2.7311,-2.7291,-2.7291,-2.7291,-2.7197,-2.7195,-2.7192,-2.719,-2.7172,-2.7174,-2.7176,0,0,0,0,0,0,0,0,0,0,0,0,0,-2.7273,-2.7272,-2.7312,-2.7262,-2.7257,-2.7291,-2.7291,-2.7291,-2.7198,-2.7195,-2.7191,-2.7188,-2.7171,-2.7173,-2.7176,-2.7257,0,0,-2.7183,-2.7184,0,0,0,0,0,0,0,0,-2.7273,-2.7275,-2.727,-2.7265,-2.726,-2.7243,-2.727,-2.7279,-2.7199,-2.7221,-2.719,-2.7187,-2.7199,-2.7199,-2.7202,-2.7256,-2.7255,-2.7183,-2.7185,-2.7186,-2.7186,0,0,0,0,0,0,0,-2.7273,-2.7275,-2.7303,-2.727,-2.7264,-2.7241,-2.7238,-2.7271,-2.7229,-2.7218,-2.7212,-2.721,-2.7196,-2.72,-2.7201,-2.7255,-2.7183,-2.7185,-2.7187,-2.7188,-2.7373,-2.7376,0,0,0,0,0,0,-2.728,-2.7276,-2.7304,-2.7303,-2.7259,-2.7245,-2.7241,-2.7252,-2.7228,-2.7221,-2.7213,-2.7206,-2.7198,-2.7198,-2.72,-2.7292,-2.7186,-2.7188,-2.7189,-2.7369,-2.7373,-2.7377,0,0,0,0,0,0,-2.7279,-2.7283,-2.7305,-2.7287,-2.7288,-2.7249,-2.7262,-2.7253,-2.7258,-2.7224,-2.7216,-2.7226,-2.7195,-2.7197,-2.7243,-2.729,-2.7189,-2.7191,-2.7365,-2.7371,-2.7375,-2.7478,0,0,0,0,0,0,-2.7278,-2.7284,-2.7314,-2.7289,-2.729,-2.7348,-2.7265,-2.7255,-2.7262,-2.7252,-2.7233,-2.7227,-2.7193,-2.724,-2.7245,-2.7292,-2.7193,-2.7361,-2.7368,-2.7374,-2.747,-2.7486,-2.75,0,0,0,0,0,-2.7277,-2.7344,-2.7316,-2.732,-2.7326,-2.7351,-2.7352,-2.731,-2.7266,-2.7296,-2.7274,-2.7228,-2.7284,-2.7245,-2.7251,-2.7299,-2.7357,-2.7366,-2.7373,-2.7464,-2.7483,-2.75,0,0,0,0,0,0,-2.7377,-2.734,-2.7308,-2.7369,-2.7364,-2.7335,-2.7372,-2.7332,-2.734,-2.7331,-2.7279,-2.7276,-2.7329,-2.7318,-2.7276,-2.7375,-2.7313,-2.7322,-2.738,-2.7398,-2.7413,-2.7414,-2.7195,0,0,0,0,0,-2.7406,-2.7428,-2.7395,-2.7452,-2.7451,-2.7412,-2.7421,-2.7389,-2.7382,-2.738,-2.7361,-2.7357,-2.7373,-2.7385,-2.7399,-2.7468,-2.7463,-2.7504,-2.7519,-2.7531,-2.754,-2.7575,-2.7593,-2.7403,-2.7403,-2.7403,0,0,-2.7466,-2.7449,-2.7466,-2.7472,-2.7464,-2.7488,-2.7411,-2.744,-2.7458,-2.7384,-2.7426,-2.7413,-2.7404,-2.7462,-2.7487,-2.7455,-2.7591,-2.7541,-2.7551,-2.7553,-2.7585,-2.7603,-2.7619,-2.7408,-2.7407,-2.7407,0,0,-2.7588,-2.7578,-2.7623,-2.7617,-2.7605,-2.7579,-2.759,-2.7567,-2.7555,-2.7596,-2.7541,-2.7561,-2.7591,-2.7587,-2.7589,-2.7708,-2.7666,-2.7714,-2.7791,-2.7826,-2.7841,-2.7854,-2.7896,-2.7912,-2.7723,-2.7723,-2.7723,0,-2.7665,-2.7699,-2.7652,-2.7685,-2.7688,-2.7621,-2.7667,-2.7663,-2.7658,-2.7662,-2.7626,-2.7661,-2.7651,-2.7707,-2.7736,-2.774,-2.775,-2.7716,-2.7843,-2.7855,-2.7867,-2.7906,-2.7922,-2.7729,-2.7728,-2.7728,-2.7727,0,-2.7793,-2.7818,-2.7856,-2.7851,-2.7859,-2.7898,-2.7857,-2.7871,-2.7838,-2.7816,-2.7858,-2.7843,-2.7852,-2.7863,-2.7832,-2.7914,-2.7895,-2.7852,-2.7788,-2.7892,-2.7928,-2.7943,-2.7738,-2.7735,-2.7734,-2.7732,0,0,-2.7979,-2.7945,-2.796,-2.7956,-2.7938,-2.7957,-2.7993,-2.8,-2.8013,-2.8011,-2.804,-2.8066,-2.8026,-2.8028,-2.7996,-2.8027,-2.8121,-2.798,-2.7979,-2.8006,-2.821,-2.8242,-2.8261,-2.8093,-2.8096,-2.8098,-2.8211,0,-2.8095,-2.8153,-2.8111,-2.8177,-2.8199,-2.8135,-2.8167,-2.8159,-2.8139,-2.8155,-2.8133,-2.8152,-2.8098,-2.8098,-2.8126,-2.8104,-2.8162,-2.8095,-2.8119,-2.8121,-2.8123,-2.828,-2.8314,-2.8421,-2.8225,-2.8227,-2.8229,0,-2.8238,-2.8241,-2.8309,-2.8285,-2.8292,-2.8321,-2.8324,-2.834,-2.833,-2.8313,-2.8315,-2.8275,-2.8309,-2.8246,-2.8292,-2.8248,-2.8255,-2.8246,-2.8249,-2.825,-2.8181,-2.8284,-2.8455,-2.8471,-2.8251,-2.8249,-2.8247,0,-2.8366,-2.8387,-2.8429,-2.8428,-2.8402,-2.8423,-2.8413,-2.84,-2.8407,-2.841,-2.8414,-2.8421,-2.8425,-2.8432,-2.8395,-2.8353,-2.8445,-2.838,-2.8432,-2.8433,-2.8454,-2.8454,-2.8628,-2.846,-2.846,-2.846,-2.8459,0,-2.8499,-2.8543,-2.8486,-2.8512,-2.8559,-2.8511,-2.8559,-2.8543,-2.8531,-2.8554,-2.85,-2.8522,-2.8471,-2.8488,-2.846,-2.8502,-2.8504,-2.8492,-2.8483,-2.8496,-2.8498,-2.85,-2.8492,-2.8464,-2.8463,-2.8462,-2.8462,0,-2.865,-2.8613,-2.8656,-2.8626,-2.862,-2.8656,-2.8631,-2.8655,-2.863,-2.8659,-2.8663,-2.8626,-2.8643,-2.8606,-2.8619,-2.8599,-2.8659,-2.8639,-2.8662,-2.8656,-2.871,-2.8705,-2.8892,-2.8914,-2.8732,-2.8734,-2.8736,0,-2.8738,-2.877,-2.8743,-2.8754,-2.8746,-2.8764,-2.877,-2.8724,-2.8732,-2.8723,-2.8747,-2.876,-2.8767,-2.8798,-2.8772,-2.8781,-2.8761,-2.8826,-2.8762,-2.8774,-2.8762,-2.876,-2.8763,-2.8839,-2.8842,-2.8843,-2.8845,0,-2.8897,-2.8877,-2.8887,-2.8891,-2.8899,-2.89,-2.8898,-2.891,-2.886,-2.8873,-2.8889,-2.8895,-2.8906,-2.892,-2.8923,-2.8913,-2.8871,-2.8865,-2.8877,-2.8891,-2.8902,-2.8896,-2.8697,-2.8861,-2.8859,-2.8858,-2.8857,-2.8857,-2.9018,-2.9043,-2.9028,-2.9041,-2.9034,-2.9032,-2.9052,-2.903,-2.9042,-2.9047,-2.9019,-2.9042,-2.903,-2.9029,-2.9024,-2.9041,-2.9012,-2.9031,-2.9035,-2.904,-2.9049,-2.89,-2.9042,-2.9041,-2.9041,-2.904,-2.904,0,-2.9174,-2.9161,-2.9173,-2.917,-2.9181,-2.9139,-2.9133,-2.9145,-2.9165,-2.9157,-2.9165,-2.9183,-2.9195,-2.917,-2.9178,-2.9197,-2.9178,-2.9201,-2.9199,-2.9197,-2.9075,-2.9063,-2.9216,-2.9216,-2.9216,-2.9216,-2.9216,-2.9216,-2.9257,-2.9296,-2.9274,-2.931,-2.9296,-2.9316,-2.9317,-2.9315,-2.9308,-2.9331,-2.934,-2.9323,-2.9308,-2.9314,-2.9324,-2.9316,-2.9321,-2.9351,-2.9337,-2.9223,-2.9206,-2.9189,-2.9178,-2.9353,-2.9353,-2.9458,-2.9459,-2.9459]},{"header":{"parameterUnit":"m.s-1","parameterCategory":1,"la1":30.2991,"la2":30.254,"lo1":-89.0895,"lo2":-89.0444,"dy":0.0017,"dx":0.0017,"nx":28,"ny":28,"refTime":"2023-10-03T21:00:00:Z","depth":0,"parameterNumber":3,"parameterNumberName":"V-component_of_WINDS"},"data":[0,0,0,0,0,0,0,0,0,0,0,0,0,0,0,0,0,0,0,0,0,0,0,0,0,0,0,0,0,0,0,0,0,0,0,0,0,0,0,0,0,0,0,0,0,0,0,0,0,0,0,0,0,0,0,0,0,0,0.7775,0.7774,0,0.7672,0.7671,0.767,0.7579,0.7578,0.7577,0.7576,0.7465,0.7463,0.7461,0,0,0,0,0,0,0,0,0,0,0,0,0,0.789,0.7888,0.7776,0.7774,0.7773,0.7672,0.7671,0.767,0.758,0.7578,0.7577,0.7576,0.7465,0.7463,0.7461,0,0,0,0,0,0,0,0,0,0,0,0,0,0.7819,0.7888,0.7776,0.7716,0.771,0.7673,0.7671,0.7669,0.758,0.7578,0.7577,0.7575,0.7466,0.7463,0.746,0.7472,0,0,0.7451,0.745,0,0,0,0,0,0,0,0,0.7823,0.7815,0.7726,0.772,0.7713,0.7637,0.767,0.7603,0.758,0.7629,0.7576,0.7575,0.7523,0.7515,0.7499,0.7467,0.7462,0.7451,0.7449,0.7448,0.7447,0,0,0,0,0,0,0,0.7828,0.7819,0.7734,0.7725,0.7717,0.7693,0.7681,0.7657,0.7586,0.7625,0.7618,0.7607,0.7519,0.7502,0.7496,0.746,0.7451,0.7448,0.7446,0.7445,0.7433,0.7434,0,0,0,0,0,0,0.7843,0.7823,0.7738,0.7731,0.7766,0.7692,0.7679,0.7663,0.7586,0.7573,0.7609,0.7603,0.7508,0.7499,0.7491,0.75,0.7448,0.7445,0.7443,0.7432,0.7433,0.7435,0,0,0,0,0,0,0.7846,0.7836,0.7742,0.7775,0.7762,0.7692,0.7675,0.7662,0.7645,0.7574,0.756,0.7605,0.7506,0.7496,0.7478,0.7495,0.7443,0.7441,0.743,0.7432,0.7434,0.7519,0,0,0,0,0,0,0.7849,0.7838,0.7843,0.7776,0.776,0.7732,0.7676,0.7661,0.7641,0.7633,0.7566,0.7554,0.7504,0.7483,0.7475,0.749,0.7438,0.7428,0.7431,0.7433,0.7514,0.7523,0.7532,0,0,0,0,0,0.7854,0.7869,0.7843,0.7833,0.7765,0.7733,0.7724,0.7668,0.7642,0.7646,0.76,0.7556,0.7495,0.7482,0.7472,0.7487,0.7426,0.743,0.7433,0.751,0.7522,0.7531,0,0,0,0,0,0,0.7937,0.7859,0.783,0.7825,0.7787,0.7718,0.7721,0.7682,0.7649,0.7643,0.7574,0.756,0.755,0.7516,0.7503,0.7494,0.7455,0.7456,0.7516,0.7527,0.7536,0.7543,0.7436,0,0,0,0,0,0.7955,0.7937,0.787,0.7871,0.7854,0.7792,0.7775,0.7736,0.7693,0.7676,0.7629,0.7587,0.7558,0.7541,0.751,0.7509,0.7493,0.7514,0.7523,0.753,0.7532,0.7529,0.7538,0.7446,0.7446,0.7446,0,0,0.7991,0.7947,0.7939,0.7887,0.7853,0.7835,0.7778,0.7761,0.7746,0.7672,0.7654,0.7618,0.7567,0.7558,0.7551,0.7529,0.7554,0.7535,0.7541,0.7539,0.7533,0.7542,0.755,0.7448,0.7448,0.7448,0,0,0.8048,0.8013,0.8011,0.7979,0.7929,0.7887,0.7887,0.7825,0.7799,0.7779,0.7724,0.7704,0.7657,0.7623,0.7599,0.7645,0.7603,0.7637,0.7683,0.768,0.7688,0.7694,0.771,0.7716,0.7639,0.7639,0.764,0,0.8099,0.8071,0.8014,0.8001,0.798,0.7915,0.7911,0.7882,0.7824,0.781,0.7787,0.7726,0.7687,0.7669,0.7681,0.7664,0.766,0.7644,0.7692,0.7697,0.7702,0.7716,0.7723,0.7644,0.7643,0.7643,0.7643,0,0.8136,0.8118,0.8122,0.807,0.8049,0.8041,0.7981,0.7966,0.793,0.789,0.7871,0.7822,0.7781,0.7774,0.7736,0.7751,0.7739,0.7705,0.7664,0.7716,0.7728,0.7734,0.765,0.7649,0.7647,0.7646,0,0,0.8241,0.816,0.8162,0.8138,0.8079,0.8063,0.8051,0.8013,0.8002,0.7964,0.7952,0.7914,0.7883,0.7856,0.7814,0.7813,0.7852,0.7778,0.7776,0.7794,0.7864,0.789,0.7898,0.7824,0.7825,0.7826,0.7869,0,0.8288,0.8266,0.8216,0.8209,0.819,0.8129,0.8119,0.8081,0.8044,0.8022,0.7979,0.7954,0.7915,0.7898,0.7894,0.7849,0.7865,0.7845,0.7811,0.7811,0.7826,0.7904,0.7931,0.7974,0.7873,0.7874,0.7875,0,0.834,0.8309,0.8301,0.8244,0.8234,0.8226,0.8188,0.8168,0.8123,0.8096,0.8068,0.8023,0.8006,0.7969,0.7945,0.7932,0.7915,0.7891,0.7891,0.7885,0.7845,0.79,0.7986,0.7993,0.7882,0.7881,0.7881,0,0.8418,0.8373,0.8363,0.8344,0.8277,0.8273,0.8244,0.8198,0.8179,0.8145,0.8131,0.8095,0.8075,0.8047,0.7993,0.7971,0.7974,0.7933,0.795,0.7952,0.7953,0.7954,0.8037,0.7944,0.7944,0.7943,0.7943,0,0.8475,0.8472,0.8397,0.8391,0.8386,0.8327,0.8323,0.8288,0.8248,0.8233,0.8177,0.8163,0.8093,0.8071,0.8028,0.8014,0.8006,0.7982,0.7971,0.7987,0.799,0.7975,0.797,0.7945,0.7945,0.7944,0.7944,0,0.856,0.851,0.8494,0.8433,0.8417,0.8417,0.8363,0.8354,0.8314,0.8296,0.8288,0.8225,0.8196,0.814,0.8095,0.8066,0.8062,0.8042,0.8078,0.807,0.8091,0.809,0.8167,0.8174,0.8077,0.8078,0.8079,0,0.86,0.8597,0.8536,0.8523,0.8497,0.8477,0.8457,0.8399,0.8381,0.8331,0.8327,0.8295,0.8266,0.8222,0.8172,0.8137,0.8115,0.8145,0.8109,0.8126,0.8115,0.8116,0.8115,0.8153,0.8154,0.8155,0.8156,0,0.8676,0.8651,0.8627,0.8594,0.8573,0.8544,0.8511,0.8503,0.8437,0.842,0.8391,0.8369,0.8324,0.8292,0.825,0.8219,0.8176,0.8168,0.817,0.8186,0.8207,0.8196,0.8099,0.8166,0.8165,0.8164,0.8164,0.8163,0.8739,0.8733,0.869,0.8665,0.8635,0.8606,0.8595,0.8555,0.8531,0.8492,0.8458,0.8433,0.8387,0.8327,0.8299,0.8277,0.8256,0.8259,0.826,0.8262,0.8268,0.8212,0.8269,0.8268,0.8268,0.8268,0.8267,0,0.8811,0.8781,0.8759,0.8716,0.8696,0.8661,0.8623,0.8608,0.8587,0.855,0.8523,0.849,0.8459,0.8407,0.8371,0.8364,0.8343,0.8356,0.8356,0.8349,0.8289,0.829,0.8374,0.8374,0.8374,0.8374,0.8374,0.8373,0.8847,0.8836,0.8807,0.8781,0.875,0.8726,0.8708,0.868,0.8651,0.8617,0.8592,0.8559,0.8516,0.8477,0.8447,0.8432,0.8421,0.844,0.8419,0.8363,0.8353,0.8344,0.8345,0.8438,0.8439,0.8481,0.8482,0.8482]}]]